Weather in Ananyino

Russia / Perm Krai     56°36′38″N   56°04′02″E
temp.,
°C
wind,
m/s
gust,
m/s
humid.,
%
clouds,
%
prec.,
mm/h
press.,
hPa
HPBL,
m
26 february, fri
fri2623:00−27sse239711 0.0 102820
02:00−28se33960 0.0 102727
05:00−29se33960 0.0 102729
08:00−29se33950 0.0 102626
11:00−23sse479745 0.0 1025256
14:00−18sse4792100 0.0 1024436
17:00−16sse4890100 0.0 1023505
20:00−19sse379599 0.0 1021126
27 february, sat
sat2723:00−20se359575 0.0 101984
02:00−19se499789 0.0 1015197
05:00−17se5129094 0.0 1012328
08:00−15se61387100 0.0 1008548
11:00−14se61094100 0.9 1006575
14:00−12ese5893100 0.9 1005643
17:00−11ese5792100 1.3 1005612
20:00−13e5109498 0.2 1004282
28 february, sun
sun2823:00−16ene5109297 0.3 1005270
02:00−16ene599297 0.0 1004254
05:00−16ne5109296 0.1 1004266
08:00−16ne6109298 0.0 1004275
11:00−13ne6109298 0.1 1005413
14:00−11ne699199 0.1 1005495
17:00−11ne6109299 0.4 1007497
20:00−13ne6119298 0.2 1009415
1 march, mon
mon123:00−15ne6119197 0.3 1012371
02:00−19ne5109482 0.0 1013216
05:00−22nne599441 0.0 1016173
08:00−24nne59940 0.0 1018161
11:00−20ne47930 0.0 1019243
14:00−15nne35870 0.0 1019357
17:00−14nne248615 0.0 1019411
20:00−20ne119952 0.0 102020
2 march, tue
tue223:00−21ssw129960 0.0 102020
02:00−22sw3310078 0.0 101831
05:00−23ssw4610087 0.0 1016105
08:00−21s51199100 0.0 1013264
11:00−18s71195100 0.1 1011368
14:00−16ssw71195100 0.6 1008474
17:00−14ssw61194100 1.4 1006563
20:00−13ssw51095100 0.6 1005464